[[{"header":{"parameterUnit":"m.s-1","parameterCategory":1,"la1":30.2991,"la2":30.254,"lo1":-89.0895,"lo2":-89.0444,"dy":0.0017,"dx":0.0017,"nx":28,"ny":28,"refTime":"2025-01-21T09:00:00:Z","depth":0,"parameterNumber":2,"parameterNumberName":"U-component_of_WINDS"},"data":[0,0,0,0,0,0,0,0,0,0,0,0,0,0,0,0,0,0,0,0,0,0,0,0,0,0,0,0,0,0,0,0,0,0,0,0,0,0,0,0,0,0,0,0,0,0,0,0,0,0,0,0,0,0,0,0,0,0,0.4511,0.4511,0,0.4498,0.4497,0.4497,0.4502,0.4502,0.4503,0.4503,0.4487,0.4486,0.4485,0,0,0,0,0,0,0,0,0,0,0,0,0,0.4539,0.4539,0.4511,0.4511,0.4511,0.4498,0.4497,0.4497,0.4502,0.4502,0.4503,0.4503,0.4487,0.4486,0.4485,0,0,0,0,0,0,0,0,0,0,0,0,0,0.4527,0.4539,0.4511,0.4512,0.4512,0.4498,0.4497,0.4497,0.4502,0.4502,0.4503,0.4503,0.4487,0.4486,0.4485,0.4469,0,0,0.4482,0.4481,0,0,0,0,0,0,0,0,0.4527,0.4526,0.4512,0.4512,0.4512,0.4502,0.4501,0.4488,0.4502,0.4506,0.4503,0.4504,0.4491,0.449,0.4486,0.4468,0.4467,0.4481,0.4481,0.448,0.448,0,0,0,0,0,0,0,0.4528,0.4526,0.4506,0.4512,0.4511,0.4512,0.4511,0.4499,0.4496,0.4505,0.4506,0.4504,0.4491,0.4487,0.4486,0.4467,0.4482,0.4481,0.448,0.4479,0.4435,0.4435,0,0,0,0,0,0,0.4529,0.4527,0.4506,0.4505,0.4521,0.4511,0.451,0.4505,0.4496,0.4495,0.4504,0.4504,0.4489,0.4487,0.4485,0.4466,0.448,0.4479,0.4479,0.4436,0.4435,0.4435,0,0,0,0,0,0,0.453,0.4528,0.4507,0.4516,0.4514,0.451,0.4504,0.4504,0.45,0.4495,0.4494,0.45,0.4489,0.4487,0.4473,0.4465,0.4479,0.4478,0.4436,0.4436,0.4435,0.4426,0,0,0,0,0,0,0.4531,0.4528,0.4522,0.4516,0.4513,0.4495,0.4504,0.4503,0.4498,0.4499,0.4491,0.449,0.4489,0.4475,0.4472,0.4464,0.4477,0.4437,0.4436,0.4435,0.4427,0.4425,0.4424,0,0,0,0,0,0.4532,0.4519,0.4522,0.4519,0.4506,0.4495,0.4493,0.4493,0.4498,0.4492,0.4488,0.4491,0.4467,0.4473,0.447,0.4462,0.4438,0.4436,0.4435,0.4428,0.4426,0.4424,0,0,0,0,0,0,0.4523,0.4519,0.4521,0.4506,0.4501,0.4496,0.4488,0.449,0.4482,0.4483,0.4482,0.4481,0.4467,0.4463,0.447,0.4446,0.4453,0.4451,0.4448,0.4446,0.4444,0.4445,0.4476,0,0,0,0,0,0.452,0.4512,0.4508,0.4496,0.4493,0.4491,0.4486,0.4486,0.4481,0.4478,0.4474,0.4467,0.4458,0.4452,0.4444,0.4427,0.4425,0.442,0.4418,0.4417,0.4415,0.4406,0.4403,0.4431,0.4431,0.4431,0,0,0.4512,0.4509,0.4504,0.4494,0.449,0.4481,0.4489,0.4479,0.4472,0.4476,0.4463,0.446,0.4453,0.4438,0.4431,0.4434,0.4407,0.4415,0.4414,0.4413,0.4404,0.4402,0.4399,0.443,0.443,0.443,0,0,0.4494,0.4491,0.448,0.4476,0.4471,0.4469,0.4467,0.4461,0.446,0.4447,0.445,0.4442,0.4426,0.4421,0.4416,0.4397,0.4399,0.4394,0.4385,0.4376,0.4374,0.4372,0.4364,0.4362,0.4393,0.4393,0.4393,0,0.4485,0.4473,0.4474,0.4465,0.446,0.4464,0.4453,0.4449,0.444,0.4437,0.4441,0.4422,0.4418,0.4401,0.4397,0.4393,0.439,0.4395,0.4374,0.4372,0.437,0.4363,0.436,0.4392,0.4392,0.4392,0.4392,0,0.4462,0.4453,0.4445,0.4438,0.4432,0.4422,0.4421,0.4416,0.4417,0.4415,0.4402,0.4397,0.4388,0.4384,0.4385,0.4368,0.437,0.4374,0.4381,0.4367,0.436,0.4358,0.4391,0.4392,0.4392,0.4392,0,0,0.4436,0.4431,0.4428,0.4424,0.4419,0.4412,0.4402,0.4394,0.4389,0.4383,0.4374,0.4362,0.4365,0.436,0.436,0.4353,0.4338,0.4358,0.4357,0.4353,0.4318,0.4315,0.4311,0.4339,0.4339,0.4338,0.4319,0,0.4417,0.44,0.4401,0.4385,0.4377,0.4381,0.4373,0.4368,0.4366,0.4359,0.4357,0.4348,0.4354,0.4351,0.4344,0.4341,0.433,0.4343,0.433,0.4329,0.433,0.4308,0.4304,0.4285,0.4316,0.4316,0.4315,0,0.4391,0.4386,0.4369,0.4365,0.4362,0.4354,0.4347,0.434,0.4335,0.4334,0.4329,0.4331,0.432,0.4328,0.4313,0.4322,0.4317,0.4315,0.4314,0.4312,0.4321,0.4304,0.4279,0.4276,0.4311,0.4312,0.4312,0,0.4374,0.4362,0.435,0.4348,0.4343,0.4337,0.4335,0.4331,0.4326,0.4319,0.4316,0.4308,0.4304,0.4298,0.4297,0.4303,0.4282,0.429,0.428,0.428,0.4274,0.4274,0.4247,0.4273,0.4273,0.4273,0.4273,0,0.4351,0.434,0.4342,0.4335,0.4323,0.4325,0.4313,0.4311,0.4307,0.4299,0.4303,0.4295,0.4296,0.4288,0.4287,0.4275,0.4273,0.4271,0.4271,0.427,0.427,0.4266,0.4267,0.4272,0.4272,0.4272,0.4272,0,0.4328,0.433,0.4317,0.4314,0.4313,0.4305,0.4302,0.4295,0.4294,0.4284,0.4282,0.4281,0.4272,0.4271,0.426,0.426,0.4244,0.4246,0.4246,0.4246,0.4236,0.4236,0.4204,0.42,0.4229,0.4229,0.4229,0,0.4313,0.4305,0.4302,0.4298,0.4295,0.4288,0.4283,0.4285,0.428,0.4275,0.4268,0.426,0.4253,0.4238,0.4236,0.4227,0.4228,0.4218,0.4227,0.4226,0.4227,0.4227,0.4226,0.4215,0.4215,0.4215,0.4214,0,0.4287,0.4288,0.4281,0.4275,0.427,0.4265,0.4261,0.4257,0.4258,0.4252,0.4244,0.4239,0.4228,0.422,0.4212,0.4209,0.4211,0.4212,0.4209,0.4207,0.4207,0.4206,0.424,0.4212,0.4212,0.4213,0.4213,0.4213,0.4267,0.426,0.4257,0.425,0.4247,0.4243,0.4236,0.4235,0.4228,0.4221,0.4222,0.4213,0.4208,0.4198,0.4195,0.4187,0.419,0.4186,0.4185,0.4183,0.4182,0.421,0.4185,0.4185,0.4185,0.4185,0.4185,0,0.4239,0.4238,0.4231,0.4226,0.422,0.4225,0.422,0.4215,0.4207,0.4203,0.4196,0.4186,0.4178,0.4176,0.4168,0.4162,0.4163,0.416,0.4159,0.4159,0.418,0.4183,0.4159,0.4159,0.4159,0.4159,0.4159,0.4159,0.4224,0.4213,0.4214,0.4201,0.4199,0.4191,0.4187,0.4184,0.4181,0.417,0.4163,0.4162,0.4159,0.4151,0.4144,0.4143,0.4139,0.4135,0.4135,0.4154,0.4157,0.416,0.4162,0.4135,0.4135,0.4115,0.4114,0.4114]},{"header":{"parameterUnit":"m.s-1","parameterCategory":1,"la1":30.2991,"la2":30.254,"lo1":-89.0895,"lo2":-89.0444,"dy":0.0017,"dx":0.0017,"nx":28,"ny":28,"refTime":"2025-01-21T09:00:00:Z","depth":0,"parameterNumber":3,"parameterNumberName":"V-component_of_WINDS"},"data":[0,0,0,0,0,0,0,0,0,0,0,0,0,0,0,0,0,0,0,0,0,0,0,0,0,0,0,0,0,0,0,0,0,0,0,0,0,0,0,0,0,0,0,0,0,0,0,0,0,0,0,0,0,0,0,0,0,0,-1.728,-1.728,0,-1.7333,-1.7334,-1.7334,-1.7334,-1.7333,-1.7333,-1.7332,-1.7383,-1.7385,-1.7387,0,0,0,0,0,0,0,0,0,0,0,0,0,-1.7175,-1.7177,-1.728,-1.728,-1.7281,-1.7333,-1.7334,-1.7335,-1.7334,-1.7333,-1.7332,-1.7332,-1.7383,-1.7385,-1.7387,0,0,0,0,0,0,0,0,0,0,0,0,0,-1.7223,-1.7177,-1.728,-1.7287,-1.7289,-1.7333,-1.7334,-1.7335,-1.7334,-1.7333,-1.7332,-1.7331,-1.7382,-1.7385,-1.7388,-1.7427,0,0,-1.7397,-1.7398,0,0,0,0,0,0,0,0,-1.7221,-1.7227,-1.7286,-1.7287,-1.7288,-1.7326,-1.7316,-1.7366,-1.7335,-1.7317,-1.7332,-1.7331,-1.7365,-1.7369,-1.7381,-1.743,-1.7432,-1.7397,-1.7399,-1.74,-1.7401,0,0,0,0,0,0,0,-1.7217,-1.7225,-1.7301,-1.7286,-1.7288,-1.7287,-1.7293,-1.7325,-1.7346,-1.7318,-1.7318,-1.7325,-1.7365,-1.7378,-1.7383,-1.7433,-1.7397,-1.74,-1.7402,-1.7403,-1.7517,-1.7518,0,0,0,0,0,0,-1.7213,-1.7222,-1.7299,-1.7302,-1.7251,-1.729,-1.7296,-1.7315,-1.7346,-1.7349,-1.7326,-1.7325,-1.7374,-1.7379,-1.7384,-1.7434,-1.74,-1.7403,-1.7405,-1.7516,-1.7517,-1.7518,0,0,0,0,0,0,-1.7211,-1.722,-1.7297,-1.7262,-1.7272,-1.7293,-1.7314,-1.7316,-1.733,-1.7351,-1.7355,-1.7336,-1.7373,-1.738,-1.7417,-1.7436,-1.7405,-1.7407,-1.7514,-1.7516,-1.7518,-1.7532,0,0,0,0,0,0,-1.7208,-1.7219,-1.7235,-1.7263,-1.7274,-1.733,-1.7315,-1.7318,-1.7335,-1.7334,-1.7361,-1.7365,-1.7373,-1.7413,-1.742,-1.7439,-1.741,-1.7513,-1.7515,-1.7517,-1.753,-1.7534,-1.7538,0,0,0,0,0,-1.7204,-1.7236,-1.7236,-1.7245,-1.7294,-1.7331,-1.7337,-1.7347,-1.7337,-1.7353,-1.7366,-1.7364,-1.7432,-1.7416,-1.7425,-1.7445,-1.7511,-1.7514,-1.7517,-1.7528,-1.7533,-1.7538,0,0,0,0,0,0,-1.7208,-1.7239,-1.724,-1.7282,-1.7304,-1.7331,-1.7351,-1.7352,-1.7376,-1.7374,-1.7384,-1.739,-1.7427,-1.7439,-1.7421,-1.7485,-1.747,-1.7475,-1.7476,-1.7481,-1.7485,-1.7482,-1.7412,0,0,0,0,0,-1.7214,-1.7242,-1.7267,-1.7302,-1.7313,-1.733,-1.7346,-1.7352,-1.7375,-1.7384,-1.74,-1.7421,-1.7448,-1.7465,-1.749,-1.7531,-1.7538,-1.7549,-1.7553,-1.7556,-1.756,-1.7584,-1.759,-1.7527,-1.7527,-1.7527,0,0,-1.7226,-1.7247,-1.7263,-1.7303,-1.7321,-1.7349,-1.7338,-1.7368,-1.7389,-1.7388,-1.7425,-1.7437,-1.7461,-1.7501,-1.7519,-1.7513,-1.7579,-1.756,-1.7562,-1.7565,-1.7588,-1.7594,-1.7599,-1.7529,-1.7529,-1.7528,0,0,-1.7263,-1.7281,-1.7313,-1.7331,-1.7359,-1.737,-1.7378,-1.7405,-1.7414,-1.7451,-1.7451,-1.7475,-1.752,-1.7538,-1.7553,-1.7597,-1.7596,-1.7605,-1.7625,-1.7649,-1.7654,-1.7658,-1.7675,-1.7681,-1.7609,-1.7609,-1.7609,0,-1.7275,-1.7318,-1.7329,-1.736,-1.7377,-1.7379,-1.7411,-1.7428,-1.7461,-1.7473,-1.7465,-1.7522,-1.7539,-1.7583,-1.7594,-1.7606,-1.7615,-1.7603,-1.7652,-1.7657,-1.7661,-1.7677,-1.7684,-1.761,-1.761,-1.761,-1.761,0,-1.7332,-1.7362,-1.7384,-1.7419,-1.7438,-1.7469,-1.7484,-1.7503,-1.7506,-1.7518,-1.7556,-1.7576,-1.7606,-1.7616,-1.762,-1.7662,-1.7657,-1.765,-1.7636,-1.7668,-1.7684,-1.769,-1.7611,-1.7611,-1.7611,-1.761,0,0,-1.7374,-1.7414,-1.7422,-1.7439,-1.7469,-1.7492,-1.7523,-1.7554,-1.757,-1.7593,-1.7619,-1.7657,-1.7652,-1.7669,-1.7674,-1.7694,-1.773,-1.7685,-1.7686,-1.7694,-1.7778,-1.7784,-1.7792,-1.7729,-1.773,-1.7731,-1.7777,0,-1.7415,-1.7472,-1.7483,-1.7532,-1.756,-1.7562,-1.7589,-1.761,-1.7622,-1.7647,-1.7659,-1.7687,-1.7677,-1.7688,-1.7707,-1.7721,-1.7747,-1.7718,-1.7754,-1.7755,-1.7749,-1.7799,-1.7806,-1.7848,-1.7783,-1.7784,-1.7785,0,-1.7472,-1.7498,-1.7551,-1.7579,-1.7591,-1.7615,-1.7645,-1.7669,-1.7693,-1.77,-1.7719,-1.7722,-1.7754,-1.7737,-1.7781,-1.7761,-1.7776,-1.7785,-1.7787,-1.7791,-1.7773,-1.7807,-1.7862,-1.7869,-1.7794,-1.7793,-1.7793,0,-1.7499,-1.7547,-1.7585,-1.7599,-1.7632,-1.7649,-1.7664,-1.7687,-1.7705,-1.773,-1.7742,-1.7769,-1.7785,-1.7806,-1.7816,-1.7803,-1.786,-1.7844,-1.7867,-1.7867,-1.788,-1.7879,-1.794,-1.7887,-1.7887,-1.7887,-1.7887,0,-1.7545,-1.7577,-1.7598,-1.7622,-1.7658,-1.7669,-1.7705,-1.7718,-1.7739,-1.7765,-1.7767,-1.7791,-1.7803,-1.7828,-1.7836,-1.7872,-1.7878,-1.7885,-1.7887,-1.7886,-1.7885,-1.7897,-1.7895,-1.7888,-1.7888,-1.7888,-1.7887,0,-1.7582,-1.7597,-1.7639,-1.7668,-1.7676,-1.7701,-1.7725,-1.7748,-1.7759,-1.7792,-1.78,-1.7819,-1.7849,-1.7861,-1.7897,-1.7903,-1.7944,-1.7943,-1.7937,-1.7938,-1.7961,-1.796,-1.8032,-1.8043,-1.7982,-1.7982,-1.7983,0,-1.7611,-1.7637,-1.7668,-1.7687,-1.7702,-1.7731,-1.775,-1.7762,-1.7781,-1.7811,-1.783,-1.7861,-1.7886,-1.7934,-1.795,-1.7978,-1.7978,-1.8002,-1.7982,-1.7981,-1.798,-1.7979,-1.7983,-1.8006,-1.8006,-1.8007,-1.8007,0,-1.7662,-1.7669,-1.7697,-1.7728,-1.7751,-1.7775,-1.7799,-1.7813,-1.7829,-1.785,-1.7882,-1.7902,-1.794,-1.797,-1.7999,-1.8013,-1.8013,-1.8013,-1.802,-1.802,-1.8016,-1.802,-1.7948,-1.8012,-1.8011,-1.8011,-1.8011,-1.801,-1.7697,-1.7721,-1.7747,-1.7779,-1.7798,-1.782,-1.7844,-1.7859,-1.7886,-1.7919,-1.7924,-1.7958,-1.7982,-1.8021,-1.8036,-1.8062,-1.8056,-1.8066,-1.8069,-1.8072,-1.8074,-1.8011,-1.8067,-1.8067,-1.8067,-1.8067,-1.8067,0,-1.775,-1.7767,-1.7796,-1.783,-1.7855,-1.7854,-1.788,-1.79,-1.7931,-1.7954,-1.7979,-1.8016,-1.8045,-1.8064,-1.8094,-1.8111,-1.8112,-1.8119,-1.8118,-1.8122,-1.8077,-1.8069,-1.8118,-1.8118,-1.8118,-1.8118,-1.8118,-1.8118,-1.778,-1.782,-1.783,-1.7879,-1.7896,-1.7931,-1.7946,-1.7967,-1.7985,-1.8027,-1.8052,-1.8065,-1.8085,-1.8117,-1.8144,-1.8148,-1.816,-1.8167,-1.8172,-1.813,-1.8125,-1.812,-1.8112,-1.8169,-1.8169,-1.8214,-1.8215,-1.8215]}]]